Weather in Malaya Loknya

Russia / Kursk Oblast     51°19′56″N   35°13′38″E
temp.,
°C
wind,
m/s
gust,
m/s
humid.,
%
clouds,
%
prec.,
mm/h
press.,
hPa
HPBL,
m
5 december, sun
sun500:00−2sse22865 0.0 101540
03:00−2sse228616 0.0 101529
06:00−3se2285100 0.0 101542
09:00−3ese23835 0.0 101673
12:000se236665 0.0 1016282
15:000se2263100 0.0 1016123
18:00−2se2370100 0.0 101744
21:00−2se3468100 0.0 101796
6 december, mon
mon600:00−2se3666100 0.0 1018172
03:00−2se3666100 0.0 1018184
06:00−2se3767100 0.0 1017229
09:00−1se4971100 0.0 1018305
12:00+1sse5973100 0.0 1018422
15:00+1se4881100 0.0 1017421
18:000se51098100 1.4 1017344
21:00+1se61395100 2.5 1016411
7 december, tue
tue700:00+2se61596100 2.3 1014443
03:00+3sse61397100 3.2 1013398
06:00+3sse51298100 0.4 1012337
09:00+4sse51299100 1.1 1011313
12:00+6sse61497100 0.5 1010453
15:00+8s61395100 0.8 1010502
18:00+8sse61396100 7.2 1010389
21:00+7sse51191100 8.8 1009321
8 december, wed
wed800:00+7sse4993100 1.6 1009254
03:00+5se3690100 1.6 1010149
06:00+5se348899 0.0 100998
09:00+3ese3691100 0.0 1010115
12:00+5e3685100 0.0 1009242
15:00+5e4787100 0.0 1008312
18:00+4e4793100 0.0 1009229
21:00+4e4893100 0.0 1009251
9 december, thu
thu900:00+4e4895100 0.0 1009211
03:00+3ese479685 0.0 1009165
06:00+3ese379585 0.0 1009139
09:00+3se379375 0.0 1010122
12:00+6se3788100 0.0 1010320
15:00+5sse2395100 0.1 101188
18:00+5ssw2296100 0.1 101238
21:00+5w3595100 0.1 1013202